Total_Precipitation_Accumulation
0.31 0.23 0.26 0.28 0.24 0.24 0.38 0.39 0.30 0.15 0.13 0.14 0.13 0.15 0.17 0.18 0.18 0.16 0.14 0.17 0.23 0.27 0.27 0.33 0.41 0.50 0.53 0.49 0.45 0.42 0.47 0.55 0.61 0.65 0.72 0.75 0.76 0.87 1.05 1.02 0.89 0.81 0.77 0.80
0.25 0.18 0.20 0.21 0.18 0.19 0.21 0.20 0.18 0.13 0.14 0.15 0.14 0.12 0.14 0.17 0.19 0.20 0.20 0.20 0.23 0.28 0.28 0.34 0.41 0.51 0.60 0.53 0.47 0.40 0.43 0.50 0.56 0.65 0.78 0.80 0.75 0.79 0.89 0.97 0.94 0.85 0.79 0.77
0.39 0.18 0.34 0.37 0.24 0.22 0.21 0.18 0.21 0.23 0.19 0.14 0.15 0.15 0.17 0.20 0.21 0.23 0.23 0.25 0.26 0.30 0.33 0.38 0.41 0.49 0.57 0.55 0.51 0.44 0.44 0.49 0.54 0.58 0.72 0.79 0.79 0.83 0.85 0.89 0.97 0.98 0.87 0.77
0.65 0.47 0.71 0.33 0.16 0.17 0.19 0.21 0.22 0.20 0.16 0.14 0.15 0.15 0.16 0.21 0.24 0.26 0.26 0.26 0.27 0.32 0.38 0.38 0.40 0.42 0.48 0.51 0.49 0.47 0.47 0.53 0.57 0.55 0.60 0.73 0.83 0.84 0.83 0.84 0.87 0.94 0.92 0.83
1.03 0.74 0.42 0.18 0.16 0.20 0.25 0.26 0.20 0.15 0.13 0.11 0.11 0.11 0.12 0.13 0.18 0.25 0.26 0.26 0.28 0.32 0.37 0.37 0.37 0.36 0.43 0.48 0.47 0.48 0.54 0.57 0.58 0.53 0.54 0.64 0.73 0.80 0.82 0.82 0.78 0.80 0.84 0.82
1.18 0.88 0.41 0.25 0.17 0.14 0.19 0.35 0.19 0.15 0.16 0.13 0.14 0.20 0.16 0.12 0.17 0.24 0.22 0.23 0.26 0.30 0.31 0.34 0.37 0.36 0.41 0.45 0.41 0.46 0.49 0.56 0.53 0.47 0.44 0.45 0.55 0.71 0.78 0.79 0.75 0.73 0.75 0.76
1.01 0.79 0.34 0.23 0.18 0.17 0.33 0.41 0.20 0.16 0.17 0.15 0.18 0.24 0.19 0.16 0.20 0.23 0.18 0.19 0.22 0.26 0.28 0.35 0.38 0.34 0.38 0.43 0.42 0.44 0.48 0.53 0.48 0.44 0.45 0.44 0.50 0.63 0.72 0.80 0.82 0.75 0.72 0.74
0.74 0.82 0.44 0.23 0.25 0.36 0.42 0.24 0.16 0.14 0.14 0.13 0.12 0.11 0.12 0.14 0.19 0.21 0.17 0.16 0.16 0.20 0.24 0.30 0.33 0.32 0.38 0.44 0.44 0.46 0.48 0.44 0.44 0.46 0.47 0.48 0.51 0.59 0.70 0.79 0.85 0.80 0.72 0.71
0.53 0.46 0.31 0.25 0.32 0.33 0.26 0.18 0.13 0.13 0.12 0.11 0.11 0.10 0.12 0.16 0.18 0.20 0.18 0.18 0.17 0.19 0.21 0.27 0.30 0.32 0.39 0.44 0.42 0.44 0.44 0.42 0.40 0.44 0.46 0.48 0.54 0.61 0.70 0.77 0.81 0.80 0.72 0.68
0.38 0.25 0.20 0.21 0.23 0.23 0.18 0.15 0.13 0.13 0.12 0.12 0.11 0.12 0.14 0.16 0.17 0.18 0.19 0.18 0.18 0.20 0.22 0.28 0.31 0.31 0.37 0.42 0.38 0.36 0.37 0.40 0.39 0.43 0.49 0.52 0.57 0.61 0.66 0.76 0.83 0.75 0.69 0.65
0.35 0.21 0.17 0.17 0.18 0.18 0.16 0.14 0.13 0.14 0.13 0.12 0.12 0.13 0.15 0.17 0.18 0.19 0.22 0.21 0.20 0.22 0.23 0.29 0.32 0.35 0.38 0.37 0.35 0.34 0.34 0.40 0.45 0.48 0.52 0.57 0.60 0.62 0.65 0.68 0.82 0.79 0.68 0.67
0.31 0.22 0.22 0.21 0.18 0.17 0.16 0.16 0.16 0.16 0.15 0.13 0.14 0.18 0.16 0.17 0.19 0.21 0.24 0.25 0.23 0.23 0.25 0.30 0.34 0.40 0.40 0.35 0.32 0.34 0.38 0.41 0.48 0.52 0.54 0.55 0.55 0.58 0.66 0.68 0.73 0.71 0.67 0.67
0.19 0.18 0.20 0.19 0.16 0.16 0.16 0.16 0.15 0.15 0.16 0.15 0.14 0.17 0.20 0.20 0.20 0.21 0.24 0.27 0.30 0.29 0.31 0.33 0.36 0.41 0.39 0.33 0.30 0.32 0.38 0.42 0.46 0.53 0.50 0.48 0.48 0.48 0.53 0.64 0.73 0.73 0.69 0.66
0.11 0.14 0.16 0.14 0.13 0.12 0.11 0.12 0.12 0.11 0.12 0.12 0.13 0.14 0.18 0.19 0.18 0.19 0.24 0.29 0.33 0.32 0.32 0.34 0.35 0.39 0.38 0.31 0.29 0.31 0.35 0.42 0.44 0.47 0.48 0.47 0.46 0.46 0.47 0.53 0.63 0.68 0.71 0.69
0.07 0.08 0.10 0.09 0.08 0.07 0.08 0.08 0.08 0.09 0.09 0.09 0.10 0.12 0.15 0.18 0.20 0.21 0.25 0.30 0.33 0.32 0.31 0.34 0.38 0.43 0.39 0.31 0.29 0.30 0.35 0.37 0.37 0.41 0.46 0.48 0.48 0.49 0.50 0.51 0.55 0.60 0.65 0.76
0.07 0.07 0.08 0.07 0.07 0.07 0.07 0.08 0.08 0.08 0.08 0.08 0.09 0.10 0.12 0.17 0.20 0.25 0.28 0.31 0.33 0.34 0.34 0.37 0.41 0.44 0.41 0.33 0.31 0.31 0.37 0.43 0.40 0.41 0.46 0.49 0.50 0.54 0.58 0.60 0.62 0.62 0.64 0.71
0.13 0.12 0.10 0.09 0.08 0.07 0.07 0.07 0.07 0.07 0.08 0.08 0.09 0.10 0.10 0.14 0.18 0.22 0.26 0.30 0.33 0.34 0.35 0.37 0.40 0.43 0.42 0.39 0.36 0.34 0.37 0.41 0.46 0.44 0.43 0.46 0.50 0.55 0.59 0.65 0.66 0.63 0.58 0.65
0.17 0.15 0.12 0.11 0.10 0.08 0.07 0.06 0.06 0.08 0.09 0.09 0.10 0.11 0.12 0.16 0.19 0.24 0.29 0.30 0.31 0.35 0.39 0.39 0.42 0.44 0.44 0.45 0.42 0.39 0.39 0.41 0.42 0.42 0.43 0.46 0.51 0.55 0.61 0.65 0.65 0.65 0.64 0.70
0.13 0.13 0.11 0.10 0.10 0.09 0.09 0.08 0.08 0.09 0.09 0.10 0.11 0.12 0.14 0.17 0.20 0.25 0.30 0.30 0.30 0.33 0.39 0.41 0.47 0.45 0.44 0.49 0.48 0.43 0.43 0.44 0.46 0.44 0.44 0.55 0.58 0.55 0.60 0.65 0.68 0.68 0.70 0.72
0.13 0.12 0.10 0.09 0.09 0.09 0.10 0.10 0.09 0.09 0.09 0.10 0.13 0.13 0.14 0.17 0.21 0.24 0.28 0.29 0.31 0.34 0.37 0.41 0.43 0.43 0.44 0.51 0.54 0.47 0.49 0.51 0.50 0.47 0.48 0.54 0.59 0.61 0.63 0.66 0.69 0.71 0.71 0.72
0.13 0.11 0.10 0.09 0.09 0.09 0.10 0.11 0.11 0.10 0.10 0.12 0.15 0.18 0.19 0.22 0.23 0.25 0.26 0.26 0.27 0.31 0.34 0.39 0.39 0.39 0.41 0.51 0.59 0.54 0.53 0.53 0.53 0.52 0.52 0.55 0.60 0.64 0.65 0.66 0.68 0.70 0.72 0.73
0.13 0.12 0.12 0.10 0.10 0.12 0.13 0.13 0.14 0.14 0.13 0.13 0.16 0.19 0.21 0.22 0.22 0.23 0.24 0.25 0.27 0.33 0.34 0.33 0.33 0.39 0.46 0.53 0.54 0.54 0.53 0.53 0.54 0.56 0.58 0.58 0.64 0.69 0.67 0.66 0.71 0.71 0.72 0.74
0.15 0.14 0.14 0.15 0.15 0.16 0.15 0.14 0.15 0.16 0.16 0.16 0.18 0.20 0.23 0.24 0.24 0.25 0.26 0.27 0.30 0.36 0.35 0.34 0.37 0.44 0.52 0.51 0.50 0.52 0.52 0.53 0.55 0.57 0.61 0.63 0.66 0.69 0.71 0.71 0.72 0.73 0.76 0.78
0.18 0.16 0.17 0.17 0.18 0.18 0.17 0.16 0.17 0.19 0.20 0.21 0.20 0.22 0.24 0.25 0.25 0.25 0.28 0.34 0.37 0.40 0.38 0.41 0.46 0.49 0.54 0.50 0.49 0.52 0.56 0.59 0.60 0.63 0.67 0.69 0.70 0.72 0.72 0.71 0.73 0.72 0.74 0.76
0.21 0.19 0.19 0.19 0.20 0.21 0.21 0.19 0.18 0.20 0.21 0.23 0.23 0.23 0.26 0.29 0.32 0.32 0.32 0.36 0.40 0.43 0.43 0.47 0.51 0.52 0.52 0.53 0.54 0.57 0.62 0.65 0.70 0.78 0.80 0.75 0.73 0.74 0.70 0.68 0.72 0.76 0.76 0.75
0.24 0.25 0.25 0.25 0.26 0.25 0.25 0.23 0.22 0.22 0.21 0.24 0.26 0.28 0.31 0.34 0.35 0.36 0.38 0.40 0.42 0.46 0.46 0.46 0.49 0.53 0.55 0.60 0.63 0.66 0.71 0.74 0.77 0.76 0.72 0.70 0.69 0.70 0.68 0.67 0.70 0.74 0.75 0.74
0.29 0.28 0.29 0.30 0.30 0.30 0.30 0.30 0.31 0.31 0.29 0.32 0.35 0.34 0.36 0.38 0.41 0.43 0.44 0.46 0.47 0.48 0.50 0.52 0.55 0.59 0.65 0.68 0.71 0.75 0.77 0.77 0.77 0.76 0.72 0.71 0.71 0.69 0.68 0.68 0.71 0.72 0.72 0.68